Showing default

HAWK-2A, 47505

Orbit data source: Space-Track

HAWK-2A, 47505 is a payload satellite owned by HawkEye 360 (US) in SSO that was launched on Sun, 24 Jan 2021 UTC via an FALCON 9 launch vehicle from the Air Force Eastern Test Range (AFETR). Payload-class satellites include a variety of spacecraft equipped with specific instruments for various scientific and technological missions. These include communications satellites like Starlink; space stations such as the ISS; scientific satellites like the Hubble; Earth observation satellites from companies like Planet Labs, Umbra, and HawkEye 360; GPS; miniature CubeSats for education and research; and military/defense satellites.

Loading next visibility...
Identifier
47505, 2021-006CW
Orbit
SSO
Country
Flag of USUS
Related business
Manufacturer
UTIAS-SFL
Mission
Operational Commercial Sigint
Bus & Motor
DEFIANT, Unknown motor
Mass
31 kg wet, 30 kg dry
Launch date (UTC)
2021-01-24 (5 years ago)
Launch vehicle
FALCON 9
Launch site
Air Force Eastern Test Range (AFETR)
Object type
Payload
Rocket body
Debris
Shape & HBR
Box + 2 Pan, 0.5 m
Radar Cross Section
0.348 m², Medium (>0.1 m² and < 1m²)

Expand to show TLE details & history
Last TLE update: 19 hours ago

TLE from 19 hours ago
0 HAWK-2A
1 47505U 21006CW  25257.59907132  .00005265  00000-0  18569-3 0  9997
2 47505  97.2753 303.1382 0009108 108.3958 251.8274 15.29643315257291
Epoch: 2025-09-14T14:22Z
TLE epoch observation values (Epoch: 2025-09-14T14:22:39.762Z)
Latitude
0.00002°
Longitude
93.65675°
Altitude
481.938 km
Speed
7.623 km/s
True Right ascension
20h 12m 33s
True Declination
0° 00' 00"
Sunlit
Object was in full shadow at epoch
Visualization orbit readout
Latitude
Unknown
Longitude
Unknown
Altitude
Unknown
Speed
Unknown
Apparent Right ascension
Unknown
Apparent Declination
Unknown
Sunlit
N/A
Visualization observer readout
Local Sidereal Time
02:05:13
Azimuth
Unknown
Elevation
Unknown
Doppler factor
Unknown
Orbital elements
Apogee altitude
480.066 km
Perigee altitude
467.584 km
Semi-major axis
6,851.962 km
Eccentricity
0.00091
Inclination
97.2753°
RAAN
303.1382°
Arg. of periapsis
108.3958°
True anomaly
251.72827°
Mean anomaly
251.8274°
Eccentric anomaly
251.77783°
Mean motion
3.82667 °/min
Orbital period
94.08 mins
BSTAR
0.00018569
Loading maneuver chart data...
Computing Atmospheric mass density...

Documentation

Showing up to 5 results
|